Radiation Dose at Monitoring Post of Fukushima Daiichi Nuclear Power Station
Date,Time,MP-1(microSv/h),MP-2(microSv/h),MP-3(microSv/h),MP-4(microSv/h),MP-5(microSv/h),MP-6(microSv/h),MP-7(microSv/h),MP-8(microSv/h),Wind Direction,Wind Velocity(m/s),Rain
2019/08/16,00:00,0.773,1.095,0.762,1.354,0.997,0.435,0.759,0.714,south-southeast,11.7,No
2019/08/16,00:10,0.774,1.095,0.762,1.355,1.000,0.435,0.760,0.714,south,11.8,No
2019/08/16,00:20,0.774,1.098,0.762,1.354,1.000,0.436,0.757,0.714,south,12.4,Yes
2019/08/16,00:30,0.772,1.096,0.759,1.352,1.000,0.437,0.757,0.714,south,9.6,Yes
2019/08/16,00:40,0.773,1.095,0.760,1.356,1.000,0.435,0.759,0.714,south-southeast,12.7,Yes
2019/08/16,00:50,0.772,1.093,0.763,1.353,0.997,0.436,0.759,0.716,south,11.0,Yes
2019/08/16,01:00,0.772,1.094,0.760,1.351,0.998,0.437,0.759,0.713,south,10.9,Yes
2019/08/16,01:10,0.773,1.094,0.760,1.354,0.998,0.436,0.758,0.714,south-southeast,12.4,Yes
2019/08/16,01:20,0.773,1.095,0.762,1.353,0.999,0.433,0.758,0.715,south-southeast,13.1,Yes
2019/08/16,01:30,0.772,1.094,0.762,1.355,0.997,0.436,0.759,0.715,south-southeast,12.8,Yes
2019/08/16,01:40,0.773,1.093,0.760,1.356,1.001,0.436,0.756,0.715,south-southeast,11.3,Yes
2019/08/16,01:50,0.770,1.093,0.762,1.351,1.001,0.435,0.760,0.714,south,10.8,Yes
2019/08/16,02:00,0.772,1.094,0.762,1.353,0.999,0.435,0.758,0.713,south,10.7,Yes
2019/08/16,02:10,0.772,1.094,0.762,1.353,1.000,0.435,0.759,0.712,south,11.6,Yes
2019/08/16,02:20,0.772,1.095,0.761,1.355,0.999,0.435,0.759,0.714,south,11.4,Yes
2019/08/16,02:30,0.773,1.093,0.761,1.353,1.001,0.436,0.759,0.713,south-southeast,13.8,Yes
2019/08/16,02:40,0.772,1.093,0.762,1.354,0.998,0.437,0.759,0.715,south-southeast,12.5,Yes
2019/08/16,02:50,0.771,1.093,0.762,1.353,1.000,0.435,0.759,0.714,south-southeast,12.7,No
2019/08/16,03:00,0.774,1.092,0.761,1.355,0.999,0.435,0.757,0.713,south-southeast,12.8,No
2019/08/16,03:10,0.773,1.092,0.759,1.353,0.999,0.436,0.758,0.713,south-southeast,13.3,Yes
2019/08/16,03:20,0.772,1.094,0.763,1.354,1.000,0.434,0.759,0.714,south-southeast,13.0,No
2019/08/16,03:30,0.771,1.092,0.760,1.353,1.000,0.436,0.758,0.714,south,11.1,No
2019/08/16,03:40,0.772,1.095,0.762,1.352,1.000,0.435,0.760,0.714,south-southeast,11.1,No
2019/08/16,03:50,0.772,1.093,0.761,1.354,1.001,0.435,0.759,0.716,south-southeast,14.6,No
2019/08/16,04:00,0.773,1.092,0.760,1.352,1.000,0.435,0.759,0.715,south,12.8,Yes
2019/08/16,04:10,0.774,1.093,0.763,1.354,0.998,0.435,0.759,0.714,south,11.6,Yes
2019/08/16,04:20,0.773,1.093,0.762,1.355,0.999,0.436,0.758,0.714,south,12.7,Yes
2019/08/16,04:30,0.773,1.091,0.762,1.352,0.998,0.436,0.757,0.714,south,11.3,Yes
2019/08/16,04:40,0.773,1.093,0.762,1.354,0.999,0.436,0.760,0.715,south,13.0,Yes
2019/08/16,04:50,0.773,1.092,0.761,1.353,0.999,0.436,0.760,0.715,south,12.0,No
2019/08/16,05:00,0.774,1.093,0.760,1.354,1.001,0.437,0.761,0.715,south,11.6,Yes
2019/08/16,05:10,0.774,1.095,0.762,1.355,1.000,0.437,0.759,0.714,south,11.6,Yes
2019/08/16,05:20,0.773,1.093,0.762,1.354,0.998,0.436,0.759,0.713,south,10.6,Yes
2019/08/16,05:30,0.776,1.093,0.762,1.353,1.000,0.436,0.759,0.714,south,11.9,Yes
2019/08/16,05:40,0.774,1.093,0.763,1.353,0.999,0.437,0.760,0.715,south,11.9,Yes
2019/08/16,05:50,0.772,1.093,0.763,1.354,1.000,0.436,0.761,0.715,south,13.0,Yes
2019/08/16,06:00,0.772,1.094,0.762,1.355,0.998,0.436,0.759,0.714,south,10.7,Yes
2019/08/16,06:10,0.773,1.094,0.761,1.353,1.000,0.436,0.760,0.715,south,13.3,Yes
2019/08/16,06:20,0.772,1.095,0.763,1.355,1.000,0.435,0.759,0.715,south,14.7,Yes
2019/08/16,06:30,0.776,1.093,0.761,1.352,1.000,0.434,0.760,0.716,south,12.7,Yes
2019/08/16,06:40,0.773,1.095,0.762,1.355,0.999,0.435,0.758,0.714,south,11.3,Yes
2019/08/16,06:50,0.775,1.096,0.761,1.353,0.999,0.437,0.759,0.714,south-southeast,15.5,No
2019/08/16,07:00,0.774,1.095,0.761,1.354,0.998,0.436,0.761,0.713,south,10.6,Yes
2019/08/16,07:10,0.775,1.094,0.762,1.352,0.998,0.437,0.758,0.715,south,14.4,Yes
2019/08/16,07:20,0.774,1.094,0.762,1.353,1.000,0.436,0.759,0.716,south,15.2,Yes
2019/08/16,07:30,0.772,1.092,0.761,1.353,0.999,0.436,0.760,0.715,south,13.5,Yes
2019/08/16,07:40,0.777,1.093,0.763,1.352,1.000,0.437,0.760,0.714,south,13.8,Yes
2019/08/16,07:50,0.773,1.093,0.762,1.351,1.002,0.436,0.760,0.716,south,13.3,Yes
2019/08/16,08:00,0.774,1.094,0.762,1.355,0.999,0.435,0.758,0.715,south,12.2,Yes
2019/08/16,08:10,0.773,1.093,0.763,1.353,0.997,0.436,0.758,0.716,south,11.8,Yes
2019/08/16,08:20,0.772,1.093,0.762,1.354,0.997,0.435,0.759,0.716,south,11.3,No
2019/08/16,08:30,0.775,1.093,0.761,1.355,0.999,0.437,0.759,0.715,south,12.0,Yes
2019/08/16,08:40,0.772,1.092,0.761,1.353,0.999,0.436,0.759,0.715,south,10.9,Yes
2019/08/16,08:50,0.774,1.093,0.762,1.355,1.000,0.436,0.760,0.714,south,10.8,Yes
2019/08/16,09:00,0.773,1.091,0.763,1.354,1.001,0.435,0.759,0.714,south,10.8,Yes
2019/08/16,09:10,0.775,1.094,0.762,1.357,1.000,0.435,0.760,0.716,south,10.9,Yes
2019/08/16,09:20,0.777,1.095,0.763,1.355,1.002,0.436,0.760,0.714,south,11.4,Yes
2019/08/16,09:30,0.775,1.095,0.763,1.354,1.001,0.436,0.759,0.715,south,9.7,Yes
2019/08/16,09:40,0.774,1.092,0.764,1.354,1.000,0.437,0.762,0.713,south,8.4,Yes
2019/08/16,09:50,0.777,1.094,0.762,1.354,1.000,0.437,0.758,0.715,south,8.3,Yes
2019/08/16,10:00,0.775,1.096,0.764,1.356,1.003,0.436,0.760,0.713,south,8.4,Yes
2019/08/16,10:10,0.775,1.099,0.763,1.353,1.001,0.437,0.759,0.716,south,10.0,Yes
2019/08/16,10:20,0.775,1.094,0.763,1.356,1.002,0.437,0.762,0.714,south,9.2,Yes
2019/08/16,10:30,0.776,1.095,0.763,1.356,1.000,0.439,0.759,0.714,south,10.2,Yes
2019/08/16,10:40,0.777,1.095,0.764,1.354,1.002,0.437,0.759,0.715,south,10.5,Yes
2019/08/16,10:50,0.776,1.095,0.763,1.357,1.001,0.437,0.759,0.714,south,10.6,Yes
2019/08/16,11:00,0.777,1.095,0.762,1.354,1.000,0.435,0.758,0.717,south,10.2,Yes
2019/08/16,11:10,0.774,1.094,0.763,1.357,0.999,0.437,0.760,0.715,south,11.6,Yes
2019/08/16,11:20,0.773,1.092,0.762,1.351,0.999,0.437,0.759,0.715,south,13.0,Yes
2019/08/16,11:30,0.774,1.090,0.763,1.353,0.995,0.437,0.759,0.715,south,11.3,Yes
2019/08/16,11:40,0.775,1.090,0.762,1.353,0.999,0.438,0.760,0.716,south,10.6,Yes
2019/08/16,11:50,0.773,1.088,0.764,1.351,0.998,0.436,0.757,0.715,south,10.3,Yes
2019/08/16,12:00,0.774,1.089,0.763,1.355,0.996,0.438,0.760,0.715,south,11.8,Yes
2019/08/16,12:10,0.774,1.088,0.761,1.352,0.996,0.438,0.758,0.714,south,11.3,Yes
2019/08/16,12:20,0.774,1.091,0.764,1.352,0.999,0.436,0.759,0.714,south,11.8,Yes
2019/08/16,12:30,0.774,1.089,0.762,1.353,0.997,0.438,0.759,0.713,south,10.9,Yes
2019/08/16,12:40,0.772,1.089,0.763,1.355,1.000,0.438,0.759,0.714,south,11.1,Yes
2019/08/16,12:50,0.773,1.089,0.762,1.351,0.997,0.436,0.758,0.715,south,11.1,Yes
2019/08/16,13:00,0.771,1.089,0.762,1.352,0.996,0.437,0.756,0.714,south,11.8,Yes
2019/08/16,13:10,0.772,1.091,0.762,1.355,0.998,0.436,0.759,0.713,south,13.3,Yes
2019/08/16,13:20,0.773,1.089,0.761,1.353,0.997,0.436,0.761,0.713,south,13.6,Yes
2019/08/16,13:30,0.774,1.087,0.761,1.350,0.999,0.436,0.757,0.714,south,11.3,Yes
2019/08/16,13:40,0.773,1.088,0.761,1.353,0.997,0.438,0.760,0.713,south,10.5,Yes
2019/08/16,13:50,0.775,1.090,0.764,1.355,0.999,0.437,0.760,0.713,south,12.7,Yes
2019/08/16,14:00,0.772,1.089,0.761,1.352,0.999,0.435,0.760,0.713,south,12.7,Yes
2019/08/16,14:10,0.772,1.090,0.762,1.353,0.999,0.435,0.756,0.713,south,11.4,Yes
2019/08/16,14:20,0.772,1.089,0.764,1.353,1.000,0.435,0.759,0.711,south,11.1,Yes
2019/08/16,14:30,0.773,1.089,0.763,1.353,0.998,0.436,0.760,0.713,south,11.3,Yes
2019/08/16,14:40,0.771,1.091,0.763,1.353,0.999,0.436,0.758,0.713,south,12.5,Yes
2019/08/16,14:50,0.773,1.088,0.761,1.352,0.998,0.436,0.759,0.713,south,11.1,Yes
2019/08/16,15:00,0.773,1.090,0.762,1.354,0.997,0.436,0.760,0.713,south,10.3,Yes
2019/08/16,15:10,0.773,1.092,0.762,1.354,0.999,0.436,0.759,0.714,south,8.6,Yes
2019/08/16,15:20,0.772,1.091,0.762,1.353,1.000,0.436,0.758,0.712,south,8.6,Yes
2019/08/16,15:30,0.773,1.090,0.762,1.352,0.999,0.436,0.759,0.713,south,7.8,Yes
2019/08/16,15:40,0.772,1.092,0.761,1.355,0.998,0.436,0.758,0.714,south,8.1,No
2019/08/16,15:50,0.774,1.091,0.763,1.353,1.000,0.436,0.758,0.714,south,9.0,No
2019/08/16,16:00,0.773,1.091,0.761,1.354,0.999,0.438,0.759,0.714,south,8.9,No
2019/08/16,16:10,0.772,1.090,0.761,1.354,0.999,0.436,0.759,0.714,south,9.2,No
2019/08/16,16:20,0.774,1.091,0.761,1.352,1.000,0.437,0.758,0.714,south,10.2,No
2019/08/16,16:30,0.772,1.090,0.761,1.353,1.000,0.436,0.758,0.715,south,9.6,No
2019/08/16,16:40,0.772,1.092,0.761,1.354,1.001,0.436,0.759,0.714,south,9.8,No
2019/08/16,16:50,0.770,1.090,0.762,1.355,0.999,0.436,0.759,0.715,south,8.5,No
2019/08/16,17:00,0.773,1.091,0.761,1.352,0.999,0.435,0.761,0.713,south,8.2,No
2019/08/16,17:10,0.774,1.090,0.761,1.355,0.997,0.438,0.759,0.711,south,8.9,No
2019/08/16,17:20,0.773,1.089,0.763,1.355,0.999,0.436,0.760,0.715,south,8.9,No
2019/08/16,17:30,0.774,1.091,0.762,1.353,1.002,0.437,0.759,0.713,south,8.3,No
2019/08/16,17:40,0.775,1.091,0.761,1.354,1.002,0.437,0.758,0.714,south,5.2,No
2019/08/16,17:50,0.773,1.092,0.761,1.355,1.000,0.437,0.760,0.714,south,5.1,No
2019/08/16,18:00,0.773,1.093,0.762,1.354,0.999,0.437,0.760,0.714,south,5.5,No
2019/08/16,18:10,0.774,1.095,0.762,1.354,1.000,0.438,0.758,0.714,south,6.2,No
2019/08/16,18:20,0.772,1.093,0.764,1.353,1.001,0.436,0.758,0.715,south,7.3,No
2019/08/16,18:30,0.775,1.093,0.761,1.354,0.998,0.437,0.758,0.713,south,7.5,No
2019/08/16,18:40,0.773,1.091,0.761,1.353,1.001,0.438,0.758,0.714,south-southeast,8.1,No
2019/08/16,18:50,0.773,1.089,0.762,1.352,1.000,0.437,0.759,0.716,south-southeast,8.3,No
2019/08/16,19:00,0.772,1.090,0.762,1.355,0.998,0.437,0.758,0.714,south,8.2,No
2019/08/16,19:10,0.772,1.093,0.762,1.354,1.001,0.438,0.760,0.715,south,7.5,No
2019/08/16,19:20,0.773,1.092,0.762,1.358,0.999,0.436,0.758,0.713,south,8.0,No
2019/08/16,19:30,0.774,1.093,0.762,1.356,1.002,0.436,0.759,0.715,south-southwest,7.0,No
2019/08/16,19:40,0.771,1.092,0.762,1.356,1.001,0.437,0.761,0.715,south-southwest,6.8,No
2019/08/16,19:50,0.771,1.093,0.763,1.358,0.997,0.438,0.761,0.715,south-southwest,4.4,No
2019/08/16,20:00,0.772,1.093,0.762,1.356,1.000,0.437,0.759,0.715,south,5.1,No
2019/08/16,20:10,0.773,1.094,0.764,1.355,0.998,0.436,0.757,0.714,south,5.5,No
2019/08/16,20:20,0.774,1.094,0.762,1.355,0.998,0.436,0.760,0.716,south,6.1,No
2019/08/16,20:30,0.774,1.093,0.762,1.354,0.999,0.437,0.760,0.714,south,6.7,No
2019/08/16,20:40,0.774,1.092,0.762,1.353,1.001,0.436,0.759,0.715,south,7.3,No
2019/08/16,20:50,0.776,1.094,0.762,1.354,0.999,0.437,0.761,0.713,south,7.1,No
2019/08/16,21:00,0.776,1.095,0.763,1.356,0.999,0.436,0.759,0.715,south,6.6,No
2019/08/16,21:10,0.774,1.093,0.763,1.356,1.000,0.436,0.759,0.717,south-southwest,6.1,No
2019/08/16,21:20,0.775,1.092,0.764,1.357,0.999,0.436,0.760,0.715,south-southwest,5.5,No
2019/08/16,21:30,0.775,1.094,0.762,1.354,1.000,0.437,0.759,0.714,south,4.8,No
2019/08/16,21:40,0.774,1.094,0.762,1.356,1.000,0.438,0.761,0.714,south,5.1,No
2019/08/16,21:50,0.774,1.094,0.761,1.354,1.000,0.438,0.759,0.715,south,6.0,No
2019/08/16,22:00,0.773,1.094,0.762,1.355,0.999,0.436,0.759,0.717,south,6.3,No
2019/08/16,22:10,0.773,1.093,0.762,1.355,1.000,0.436,0.759,0.715,south-southwest,4.3,No
2019/08/16,22:20,0.774,1.093,0.762,1.356,0.998,0.438,0.758,0.715,south,3.3,No
2019/08/16,22:30,0.774,1.095,0.760,1.356,0.999,0.438,0.760,0.716,south,4.1,No
2019/08/16,22:40,0.775,1.091,0.763,1.356,0.998,0.436,0.759,0.715,south-southwest,3.5,No
2019/08/16,22:50,0.775,1.091,0.761,1.354,1.000,0.437,0.758,0.715,south,2.6,No
2019/08/16,23:00,0.775,1.091,0.763,1.355,0.999,0.437,0.757,0.715,south-southwest,2.5,No
2019/08/16,23:10,0.774,1.093,0.763,1.357,1.000,0.438,0.759,0.717,south,3.0,No
2019/08/16,23:20,0.776,1.095,0.761,1.354,1.001,0.436,0.759,0.714,south-southwest,2.9,No
2019/08/16,23:30,0.775,1.091,0.760,1.354,0.999,0.439,0.759,0.716,south-southwest,4.0,No
2019/08/16,23:40,0.776,1.093,0.763,1.356,1.000,0.438,0.757,0.714,south-southwest,3.6,No
2019/08/16,23:50,0.777,1.093,0.762,1.354,0.999,0.437,0.760,0.716,west-southwest,3.7,No
